SCP
2 2 1 1 1 1 1 1 1 1 0 0 0 0 0 0 0 0 0 0 0 0 0 0 0 0 0 0 0 0 0 0 1 1 1 1 1 1
2 2 2 1 1 1 1 1 1 1 0 0 0 0 0 0 0 0 0 0 0 0 0 0 0 0 0 0 0 0 0 0 0 1 1 1 1 1
2 3 2 2 1 1 1 1 1 0 0 0 0 0 0 0 0 0 0 0 0 0 0 0 0 0 0 0 0 0 0 0 0 0 1 1 1 1
3 3 3 3 2 1 1 1 1 1 0 0 0 0 0 0 0 0 0 0 0 0 0 0 0 0 0 0 0 0 0 0 0 0 0 1 1 1
4 4 4 3 2 2 1 1 1 1 1 1 0 0 0 1 1 1 1 1 1 0 0 0 0 0 0 0 0 0 0 0 0 0 0 0 0 0
5 5 5 3 3 2 2 1 1 1 1 1 0 0 1 1 1 1 1 1 1 0 0 0 0 0 0 0 0 0 0 0 0 0 0 0 0 0
6 6 5 4 3 2 1 1 1 1 1 1 1 0 0 1 1 1 1 0 0 1 1 1 1 1 0 0 0 0 0 0 0 0 0 0 0 0
5 5 4 4 3 2 1 1 1 1 1 1 0 0 0 0 0 0 0 0 0 1 1 1 1 1 0 0 0 0 0 0 0 0 0 0 0 0
3 3 2 2 2 1 1 1 1 1 1 0 0 0 0 0 0 0 0 0 0 0 1 1 1 0 0 0 0 0 0 0 0 0 0 0 0 0
1 1 1 1 1 1 1 1 1 1 1 0 0 0 0 0 0 0 0 0 0 0 0 1 0 0 0 0 0 0 0 0 0 0 0 0 0 0
1 1 1 1 1 1 1 1 1 1 1 0 0 0 0 0 0 0 0 0 0 0 0 1 0 0 0 0 0 0 0 0 0 0 0 0 0 0
1 1 1 0 0 0 0 1 1 1 1 0 0 0 0 0 0 0 0 0 0 0 0 0 0 0 0 0 0 0 0 0 0 0 0 0 0 0
1 0 0 0 0 0 0 0 0 0 0 0 0 0 0 0 0 0 0 0 0 0 0 0 0 0 0 0 0 0 0 0 0 0 0 0 0 0
0 0 0 0 0 0 0 0 0 0 0 0 0 0 0 0 0 0 0 0 0 0 1 0 0 0 0 0 0 0 0 0 0 0 0 0 0 0
0 0 0 0 0 0 0 0 0 0 0 0 0 0 0 0 0 0 0 0 0 0 0 0 0 0 0 0 0 0 0 0 0 0 0 0 0 0
0 0 0 0 0 0 0 0 0 0 0 0 0 0 0 0 0 0 0 0 0 0 0 0 0 0 0 0 0 0 0 0 0 0 0 0 0 0
0 0 0 0 0 0 0 0 0 0 0 0 0 0 0 0 0 0 0 0 0 0 0 0 0 0 0 0 0 0 0 0 0 0 0 0 0 0
0 0 0 0 0 0 0 0 0 0 0 0 0 0 0 0 0 0 0 0 0 0 0 0 0 0 0 0 0 0 0 0 0 0 0 0 0 0
0 0 0 0 0 0 0 0 0 0 0 0 0 0 0 0 0 0 0 0 0 0 0 0 0 0 0 0 0 0 0 0 0 0 0 0 0 0
0 0 0 0 0 0 0 0 0 0 0 0 0 0 0 0 0 0 0 0 0 0 0 0 0 0 0 0 0 0 0 0 0 0 0 0 0 0
0 0 0 0 0 0 0 0 0 0 0 0 0 0 0 0 0 0 0 0 0 0 0 0 0 0 0 0 0 0 0 0 0 0 0 0 0 0
0 0 0 0 0 0 0 0 0 0 0 0 0 0 0 0 0 0 0 0 0 0 0 0 0 0 0 0 0 0 0 0 0 0 0 0 0 0
0 0 0 0 0 0 0 0 0 0 0 0 0 0 0 0 0 0 0 0 0 0 0 0 0 0 0 0 0 0 0 0 0 0 0 0 0 0
Wind_Speed
4 4 3 3 3 4 3 4 4 4 4 3 2 2 2 2 3 3 4 4 5 6 6 6 6 7 7 7 7 7 7 8 9 9 9 8 9 10
2 2 3 2 2 2 3 3 4 4 4 2 3 2 2 2 2 3 3 4 4 4 4 4 5 5 5 6 6 6 7 7 7 7 7 8 8 8
1 1 2 2 2 2 2 2 3 3 5 3 2 2 2 2 2 2 2 2 2 2 3 3 3 3 3 4 4 5 5 6 6 6 6 7 7 8
1 1 2 1 1 1 1 2 2 3 4 4 2 2 2 2 2 1 1 1 1 1 2 2 2 2 2 3 3 3 3 3 4 4 5 6 7 7
1 1 2 1 1 1 1 2 2 2 3 3 2 2 1 1 1 1 1 1 1 0 1 1 1 1 2 2 2 2 2 2 3 4 4 4 5 6
0 0 1 1 2 2 1 2 2 2 1 2 2 1 1 1 0 1 1 1 1 1 1 1 1 1 0 1 1 1 2 2 2 3 3 4 3 4
0 0 1 1 2 2 1 2 1 1 1 1 1 1 1 1 1 1 1 1 1 0 1 1 1 1 1 1 1 1 1 1 1 2 3 3 3 3
0 1 1 1 2 2 2 2 1 1 1 1 1 2 2 2 1 1 0 0 1 0 0 0 0 0 1 1 1 1 2 2 2 3 3 3 3 3
0 1 1 2 2 2 2 2 2 3 2 1 1 2 2 2 1 1 1 1 1 0 1 1 0 1 1 0 0 1 1 2 2 2 2 3 3 3
1 0 1 2 2 1 1 2 2 2 2 1 1 2 2 1 1 1 1 1 0 0 0 1 1 1 1 1 0 1 1 2 2 3 2 2 3 3
1 1 1 1 3 2 1 1 2 2 2 2 1 1 1 1 1 1 1 1 0 1 0 1 1 1 1 1 1 1 2 2 2 3 3 2 2 3
1 1 2 2 3 3 1 0 1 2 2 2 3 3 2 2 2 1 1 1 0 1 0 1 1 0 1 1 1 1 1 2 3 3 3 3 3 2
1 0 1 3 3 2 1 1 1 1 1 1 2 2 2 2 1 1 0 1 1 1 1 1 1 1 1 1 1 1 1 1 1 2 3 4 4 3
1 0 0 1 2 2 2 1 1 1 1 1 2 2 2 2 2 1 1 1 1 1 1 2 1 1 1 1 1 1 1 1 1 1 1 2 3 4
1 1 2 2 2 2 3 3 2 2 1 1 1 2 2 2 2 1 1 1 1 1 0 1 1 1 1 2 1 1 1 1 2 1 1 2 2 2
1 2 3 4 3 3 3 3 2 2 1 1 1 2 2 2 2 1 1 1 1 1 1 0 1 1 2 1 1 2 2 2 1 2 2 2 2 2
2 2 2 2 2 2 2 2 2 2 2 1 1 2 2 2 2 1 1 1 1 1 2 1 1 1 2 1 2 2 2 2 2 1 2 2 2 3
4 2 2 1 1 1 1 2 2 2 1 1 1 1 2 2 2 2 1 1 1 1 1 1 1 1 1 1 3 3 2 2 2 1 2 2 3 3
3 2 1 1 0 0 1 1 1 1 1 1 1 2 2 2 2 2 2 2 2 2 2 1 0 0 1 3 2 3 3 2 1 1 2 3 4 3
2 2 1 1 1 0 0 0 1 1 1 1 1 2 2 2 2 2 2 3 2 2 2 1 1 2 3 3 3 2 3 3 2 3 2 3 3 3
2 2 1 1 1 1 0 0 0 1 1 1 1 2 2 2 2 2 2 3 2 2 3 3 3 4 2 2 2 2 2 4 5 3 3 2 2 2
2 2 2 1 1 1 0 0 0 1 1 1 1 1 2 2 2 3 3 3 2 3 3 3 3 2 1 2 3 4 4 3 3 5 6 5 3 3
2 2 1 1 1 1 1 0 0 0 0 1 1 2 2 2 2 2 3 3 3 3 3 3 3 2 2 2 3 4 5 4 2 2 3 5 8 8
Wind_Direction
245 243 243 244 233 231 226 223 233 259 263 238 235 240 237 240 253 254 252 249 245 242 237 235 234 230 231 231 232 234 237 237 234 233 234 236 231 227
251 250 257 258 245 235 230 233 230 237 255 245 234 249 247 263 264 262 260 261 250 241 238 229 227 227 229 231 231 231 231 232 229 228 228 227 225 225
278 263 275 272 264 254 236 233 233 234 253 267 246 262 249 265 286 276 271 272 268 234 227 216 217 222 232 237 234 228 225 224 222 220 225 225 222 221
279 278 288 297 293 290 267 252 242 231 240 262 267 259 257 267 273 275 284 277 275 217 195 196 196 206 221 231 232 233 230 224 221 219 219 216 214 216
257 261 283 286 296 294 281 276 268 253 236 243 257 246 253 267 275 286 296 306 313 76 148 157 180 199 227 237 237 235 229 219 212 209 208 205 202 203
278 278 303 301 298 298 286 278 273 265 243 245 256 258 262 268 244 288 316 326 315 6 30 68 105 129 117 296 258 231 218 201 198 195 188 184 186 189
42 346 315 318 313 307 308 293 269 251 246 248 265 283 276 285 273 256 278 310 302 10 349 21 44 36 28 26 44 64 88 141 169 170 165 168 173 175
117 337 348 350 349 355 4 10 12 261 255 251 250 264 266 269 274 247 228 295 280 2 295 313 88 42 354 3 33 85 100 113 127 133 138 148 158 161
128 342 343 355 354 346 353 13 22 24 25 264 271 277 280 275 260 248 237 239 248 264 234 253 242 253 284 336 98 137 128 132 132 130 138 148 153 160
95 357 329 333 348 343 354 22 16 9 356 325 270 287 299 302 250 240 231 217 170 48 222 238 268 268 284 284 268 176 170 169 162 154 150 152 160 171
59 42 20 350 356 24 72 15 355 345 356 18 16 340 358 41 77 105 96 120 274 248 217 229 239 275 259 255 245 219 216 202 187 176 170 167 171 183
60 42 42 34 25 49 87 73 349 334 348 8 18 21 19 31 56 101 169 154 17 256 197 222 208 214 258 240 261 255 236 223 206 199 193 184 181 187
150 51 25 37 43 53 68 62 320 333 15 27 24 22 23 19 11 3 312 210 211 239 195 195 206 211 238 261 259 241 245 255 236 231 214 206 204 198
175 166 60 57 61 62 63 44 48 65 68 52 31 10 4 355 341 330 318 294 286 277 222 191 200 202 216 248 263 266 250 238 240 239 229 206 214 218
147 122 101 92 87 71 51 48 54 64 61 44 8 339 332 327 339 346 352 354 9 20 118 208 227 208 220 235 257 269 268 253 231 240 237 222 216 209
94 95 93 85 76 66 50 42 38 39 43 20 346 339 343 353 4 3 2 356 355 351 14 12 250 224 237 251 241 254 243 241 239 237 229 237 234 222
125 90 74 66 57 48 43 38 34 36 33 16 9 4 359 358 357 357 3 9 9 338 336 343 323 277 254 248 253 253 260 262 252 231 224 241 244 234
115 104 95 90 77 52 44 32 25 16 6 3 4 2 352 345 345 350 345 325 304 302 304 321 347 355 325 263 233 256 262 271 272 237 231 245 256 248
109 117 118 118 103 76 46 26 7 358 2 6 359 358 353 348 348 348 345 333 320 311 310 314 293 262 289 298 286 220 252 276 273 260 248 245 257 260
126 139 147 144 137 123 76 342 354 19 24 11 0 357 356 345 343 343 339 329 317 313 318 320 283 264 261 279 289 287 237 246 253 257 258 257 261 260
159 155 163 161 156 150 170 312 9 21 17 9 2 356 348 340 331 329 327 326 318 315 313 311 303 290 273 258 270 284 279 238 238 245 243 249 260 258
167 170 174 170 161 150 151 98 42 22 12 1 348 343 336 325 319 323 327 324 315 308 303 308 323 325 296 273 282 289 295 296 256 241 232 225 230 241
173 173 175 173 164 156 148 125 116 340 344 334 328 324 321 314 309 311 314 310 310 313 317 322 327 322 304 282 285 290 295 301 300 286 262 243 241 251